Location: Noyers
(47.2770°N, 1.4032°E)
Time: 23:34:13
(UTC+00:00)

USA 186 - Pass Details

Date: 15 May 2026
Orbit: 338 x 359 km, 97.0° (Epoch: 19 May)

Event Time Altitude Azimuth Distance (km) Brightness Sun altitude
Exits shadow 21:12:57 17° 207° (SSW) 946 3.3 -14.8°
Maximum altitude 21:14:34 32° 262° (W) 614 2.9 -15.0°
Drops below altitude 10° 21:17:06 10° 329° (NNW) 1,294 5.6 -15.2°
Sets 21:19:08 0° 340° (NNW) 2,140 6.9 -15.5°
